Location: Newark
(48.1500°N, 2.9667°W)
Time: 14:57:41
(UTC+00:00)

Transit 2A - Pass Details

Date: 28 January 2020
Orbit: 600 x 959 km, 66.7° (Epoch: 22 February)

Event Time Altitude Azimuth Distance (km) Brightness Sun altitude
Rises 01:22:27 0° 330° (NNW) 2,908 - -58.0°
Reaches altitude 10° 01:26:18 10° 4° (N) 2,055 - -57.7°
Maximum altitude 01:27:55 12° 24° (NNE) 1,975 - -57.6°
Drops below altitude 10° 01:29:35 10° 45° (NE) 2,114 - -57.4°
Sets 01:33:42 0° 78° (ENE) 3,120 - -57.1°
